When you browse on this site, cookies collect data to enhance your experience and personalize the content and advertising you see.
Visit our Privacy Policy to learn more. By continuing to use the site, you agree to this use of cookies and data.
  • En España
  • Lista de países
  • Para 7 días
  • Temperatura del agua
  • Mapa Satelital
  • El tiempo en el mapa
  • Informadores
  • user-avatar
    Iniciar sesión

    Tiempo cada hora Mahdia

    Hoy, 19 Febrero, Martes

    Tiempo Temperatura Precipitaciones Viento Presión Humedad
    00:00 +12°C° 0 mm 5 mps 767 mmHg 67%
    01:00 +10°C° 0 mm 5 mps 767 mmHg 68%
    02:00 +10°C° 0 mm 5 mps 767 mmHg 69%
    03:00 +11°C° 0 mm 4 mps 767 mmHg 70%
    04:00 +11°C° 0 mm 4 mps 767 mmHg 71%
    05:00 +11°C° 0 mm 4 mps 767 mmHg 73%
    06:00 +11°C° 0 mm 4 mps 766 mmHg 75%
    07:00 +10°C° 0 mm 3 mps 766 mmHg 76%
    08:00 +12°C° 0 mm 3 mps 767 mmHg 68%
    09:00 +13°C° 0 mm 3 mps 767 mmHg 61%
    10:00 +16°C° 0 mm 3 mps 767 mmHg 53%
    11:00 +17°C° 0 mm 3 mps 767 mmHg 48%
    12:00 +17°C° 0 mm 3 mps 766 mmHg 44%
    13:00 +18°C° 0 mm 3 mps 766 mmHg 40%
    14:00 +18°C° 0 mm 4 mps 766 mmHg 42%
    15:00 +18°C° 0 mm 4 mps 765 mmHg 43%
    16:00 +17°C° 0 mm 5 mps 765 mmHg 45%
    17:00 +16°C° 0 mm 5 mps 765 mmHg 53%
    18:00 +15°C° 0 mm 5 mps 765 mmHg 61%
    19:00 +14°C° 0 mm 4 mps 765 mmHg 68%
    20:00 +14°C° 0 mm 4 mps 766 mmHg 71%
    21:00 +13°C° 0 mm 4 mps 766 mmHg 74%
    22:00 +13°C° 0 mm 4 mps 766 mmHg 77%
    23:00 +13°C° 0 mm 4 mps 766 mmHg 77%

    Mañana, 20 Febrero, Miércoles

    Tiempo Temperatura Precipitaciones Viento Presión Humedad
    00:00 +13°C° 0 mm 4 mps 766 mmHg 78%
    01:00 +12°C° 0 mm 4 mps 766 mmHg 79%
    02:00 +12°C° 0 mm 4 mps 766 mmHg 80%
    03:00 +12°C° 0 mm 4 mps 766 mmHg 81%
    04:00 +12°C° 0 mm 4 mps 766 mmHg 82%
    05:00 +12°C° 0 mm 4 mps 766 mmHg 82%
    06:00 +12°C° 0 mm 4 mps 766 mmHg 82%
    07:00 +12°C° 0 mm 4 mps 766 mmHg 83%
    08:00 +13°C° 0 mm 5 mps 766 mmHg 77%
    09:00 +15°C° 0 mm 5 mps 766 mmHg 71%
    10:00 +16°C° 0 mm 5 mps 767 mmHg 66%
    11:00 +16°C° 0 mm 5 mps 767 mmHg 63%
    12:00 +17°C° 0 mm 6 mps 766 mmHg 60%
    13:00 +17°C° 0 mm 6 mps 766 mmHg 58%
    14:00 +17°C° 0 mm 6 mps 766 mmHg 60%
    15:00 +17°C° 0 mm 6 mps 766 mmHg 63%
    16:00 +16°C° 0 mm 6 mps 766 mmHg 65%
    17:00 +15°C° 0 mm 6 mps 766 mmHg 71%
    18:00 +15°C° 0 mm 6 mps 767 mmHg 77%
    19:00 +14°C° 0 mm 5 mps 767 mmHg 83%
    20:00 +14°C° 0 mm 5 mps 767 mmHg 84%
    21:00 +14°C° 0 mm 5 mps 768 mmHg 85%
    22:00 +14°C° 0 mm 5 mps 768 mmHg 86%
    23:00 +13°C° 0 mm 5 mps 768 mmHg 86%

    Pasado mañana, 21 Febrero, Jueves

    Tiempo Temperatura Precipitaciones Viento Presión Humedad
    00:00 +13°C° 0 mm 5 mps 768 mmHg 87%
    01:00 +13°C° 0 mm 5 mps 769 mmHg 88%
    02:00 +13°C° 0 mm 4 mps 769 mmHg 88%
    03:00 +13°C° 0 mm 4 mps 769 mmHg 88%
    04:00 +13°C° 0 mm 4 mps 769 mmHg 88%
    05:00 +13°C° 0 mm 4 mps 769 mmHg 88%
    06:00 +13°C° 0 mm 4 mps 769 mmHg 88%
    07:00 +12°C° 0 mm 4 mps 770 mmHg 88%
    08:00 +13°C° 0 mm 4 mps 770 mmHg 81%
    09:00 +14°C° 0 mm 4 mps 770 mmHg 75%
    10:00 +15°C° 0 mm 4 mps 771 mmHg 69%
    11:00 +17°C° 0 mm 4 mps 771 mmHg 66%
    12:00 +17°C° 0 mm 4 mps 771 mmHg 64%
    13:00 +17°C° 0 mm 4 mps 771 mmHg 61%
    14:00 +16°C° 0 mm 5 mps 771 mmHg 61%
    15:00 +16°C° 0 mm 5 mps 770 mmHg 60%
    16:00 +16°C° 0 mm 5 mps 770 mmHg 60%
    17:00 +15°C° 0 mm 4 mps 771 mmHg 64%
    18:00 +14°C° 0 mm 4 mps 771 mmHg 67%
    19:00 +13°C° 0 mm 4 mps 771 mmHg 71%
    20:00 +13°C° 0 mm 3 mps 772 mmHg 72%
    21:00 +13°C° 0 mm 3 mps 772 mmHg 73%
    22:00 +12°C° 0 mm 3 mps 773 mmHg 74%
    23:00 +12°C° 0 mm 3 mps 773 mmHg 75%

    22 Febrero, Viernes

    Tiempo Temperatura Precipitaciones Viento Presión Humedad
    00:00 +12°C° 0 mm 3 mps 773 mmHg 76%
    01:00 +12°C° 0 mm 3 mps 772 mmHg 77%
    02:00 +12°C° 0 mm 4 mps 772 mmHg 78%
    03:00 +11°C° 0 mm 4 mps 772 mmHg 79%
    04:00 +10°C° 0 mm 5 mps 772 mmHg 80%
    05:00 +10°C° 0 mm 5 mps 772 mmHg 82%
    06:00 +10°C° 0 mm 5 mps 772 mmHg 83%
    07:00 +10°C° 0 mm 5 mps 772 mmHg 84%
    08:00 +11°C° 0 mm 6 mps 772 mmHg 77%
    09:00 +13°C° 0 mm 6 mps 772 mmHg 70%
    10:00 +14°C° 0 mm 6 mps 772 mmHg 64%
    11:00 +14°C° 0 mm 6 mps 772 mmHg 61%
    12:00 +15°C° 0 mm 6 mps 771 mmHg 58%
    13:00 +15°C° 0 mm 6 mps 771 mmHg 56%
    14:00 +16°C° 0 mm 6 mps 770 mmHg 55%
    15:00 +16°C° 0 mm 6 mps 770 mmHg 54%
    16:00 +16°C° 0 mm 6 mps 769 mmHg 53%
    17:00 +16°C° 0 mm 7 mps 769 mmHg 58%
    18:00 +15°C° 0 mm 7 mps 769 mmHg 63%
    19:00 +13°C° 0 mm 8 mps 769 mmHg 68%
    20:00 +13°C° 0 mm 8 mps 770 mmHg 69%
    21:00 +12°C° 0 mm 8 mps 770 mmHg 69%
    22:00 +12°C° 0 mm 9 mps 770 mmHg 70%
    23:00 +11°C° 0 mm 9 mps 770 mmHg 72%

    23 Febrero, Sábado

    Tiempo Temperatura Precipitaciones Viento Presión Humedad
    00:00 +11°C° 0 mm 9 mps 769 mmHg 74%
    01:00 +11°C° 0 mm 9 mps 769 mmHg 75%
    02:00 +9°C° 0 mm 10 mps 769 mmHg 77%
    03:00 +9°C° 0 mm 10 mps 768 mmHg 78%
    04:00 +9°C° 0 mm 11 mps 768 mmHg 80%
    05:00 +9°C° 0 mm 11 mps 768 mmHg 80%
    06:00 +9°C° 0 mm 11 mps 768 mmHg 81%
    07:00 +9°C° 0 mm 11 mps 768 mmHg 81%
    08:00 +11°C° 0 mm 11 mps 768 mmHg 76%
    09:00 +12°C° 0 mm 11 mps 768 mmHg 72%
    10:00 +13°C° 0 mm 11 mps 768 mmHg 67%
    11:00 +14°C° 0 mm 12 mps 768 mmHg 62%
    12:00 +15°C° 0 mm 13 mps 767 mmHg 58%
    13:00 +17°C° 0 mm 13 mps 767 mmHg 53%
    14:00 +15°C° 0 mm 14 mps 767 mmHg 54%
    15:00 +15°C° 0 mm 14 mps 766 mmHg 55%
    16:00 +14°C° 0 mm 14 mps 766 mmHg 56%
    17:00 +14°C° 0 mm 13 mps 766 mmHg 57%
    18:00 +13°C° 0 mm 13 mps 767 mmHg 58%
    19:00 +12°C° 0 mm 12 mps 767 mmHg 59%
    20:00 +12°C° 0 mm 12 mps 768 mmHg 56%
    21:00 +12°C° 0 mm 12 mps 768 mmHg 53%
    22:00 +12°C° 0 mm 11 mps 768 mmHg 50%
    23:00 +11°C° 0 mm 11 mps 768 mmHg 51%

    24 Febrero, Domingo

    Tiempo Temperatura Precipitaciones Viento Presión Humedad
    00:00 +11°C° 0 mm 11 mps 768 mmHg 51%
    01:00 +11°C° 0 mm 10 mps 768 mmHg 52%
    02:00 +11°C° 0 mm 10 mps 768 mmHg 53%
    03:00 +9°C° 0 mm 10 mps 768 mmHg 54%
    04:00 +9°C° 0 mm 10 mps 768 mmHg 55%
    05:00 +9°C° 0 mm 10 mps 768 mmHg 54%
    06:00 +9°C° 0 mm 10 mps 768 mmHg 54%
    07:00 +9°C° 0 mm 10 mps 768 mmHg 53%
    08:00 +9°C° 0 mm 10 mps 768 mmHg 51%
    09:00 +11°C° 0 mm 11 mps 769 mmHg 49%
    10:00 +12°C° 0 mm 11 mps 769 mmHg 47%
    11:00 +12°C° 0 mm 11 mps 769 mmHg 47%
    12:00 +13°C° 0 mm 11 mps 769 mmHg 46%
    13:00 +13°C° 0 mm 11 mps 769 mmHg 46%
    14:00 +12°C° 0 mm 10 mps 768 mmHg 50%
    15:00 +12°C° 0 mm 10 mps 768 mmHg 54%
    16:00 +11°C° 0 mm 10 mps 768 mmHg 58%
    17:00 +11°C° 0 mm 10 mps 768 mmHg 60%
    18:00 +10°C° 0 mm 9 mps 769 mmHg 62%
    19:00 +10°C° 0 mm 9 mps 769 mmHg 64%
    20:00 +9°C° 0 mm 10 mps 769 mmHg 62%
    21:00 +9°C° 0 mm 11 mps 769 mmHg 61%
    22:00 +9°C° 0 mm 11 mps 770 mmHg 59%
    23:00 +9°C° 0 mm 11 mps 770 mmHg 59%
    Mostrar más